Regional Weather Roundup
Issued by NWS Newport/Morehead, NC

Current Version | Previous Version | Text Only | Print | Product List | Glossary On
Versions: 1 2 3 4 5 6 7 8 9 10 11 12 13 14 15 16 17 18 19 20 21 22 23 24 25 26 27 28 29 30 31 32 33 34 35 36 37 38 39 40 41 42 43 44 45 46 47 48 49 50
000
ASUS42 KMHX 160325
RWRMHX
WEATHER ROUNDUP FOR EASTERN NORTH CAROLINA
NATIONAL WEATHER SERVICE NEWPORT/MOREHEAD CITY NC
1000 PM EST FRI DEC 15 2017

NOTE: "FAIR" INDICATES FEW OR NO CLOUDS BELOW 12,000 FEET
WITH NO SIGNIFICANT WEATHER AND/OR OBSTRUCTIONS TO VISIBILITY

NCZ015>017-031-032-045>047-102-103-160400-
NORTH COAST

CITY           SKY/WX    TMP DP  RH WIND       PRES   REMARKS
EDENTON        CLEAR     38  30  71 NW6       30.07R
ELIZABETH CITY CLOUDY    35  28  75 W8        30.05R
KITTY HAWK     PTCLDY    38  28  65 NW7       30.03R
MANTEO         CLEAR     39  27  63 N9G22     30.05R

$$

NCZ045>047-081-094-103-104-160400-
CENTRAL COAST

CITY           SKY/WX    TMP DP  RH WIND       PRES   REMARKS
FRISCO         CLOUDY    44  30  57 NW15G29   30.03R

$$

NCZ095-097-098-100-101-160400-
SOUTHERN COAST

CITY           SKY/WX    TMP DP  RH WIND       PRES   REMARKS
BEAUFORT       MOCLDY    44  31  60 N10       30.06R
CEDAR ISLAND   NOT AVBL
JACKSONVILLE   CLOUDY    44  31  60 NW8       30.07R
PINEY ISLAND     N/A    N/A N/A N/A NW15      30.06R
WILMINGTON     PTCLDY    48  34  58 N9        30.07R


$$

NCZ011>013-027>030-043-044-078>080-089-090>093-098-160400-
COASTAL PLAIN

CITY           SKY/WX    TMP DP  RH WIND       PRES   REMARKS
AHOSKIE        CLEAR     30  26  84 CALM      30.07R
CLINTON        PTCLDY    40  31  71 CALM      30.10R
ELIZABETHTOWN  NOT AVBL
GOLDSBORO      CLEAR     37  28  71 CALM      30.06R
GREENVILLE     CLEAR     36  28  75 CALM      30.09R
HAVELOCK       CLOUDY    44  29  55 NW16      30.06R
KENANSVILLE    PTCLDY    39  28  65 NW3       30.09R
KINSTON        NOT AVBL
NEW BERN       PTCLDY    41  29  62 NW10      30.07R
RICHLANDS      CLOUDY    42  30  62 NW3       30.08R
ROCKY MOUNT    CLEAR     30  28  92 CALM      30.07R
WASHINGTON     PTCLDY    37  27  67 CALM      30.07S
WHITEVILLE     MOCLDY    46  32  59 CALM      30.08R

$$

AMZ130-135-150-152-154-156-158-170-250-252-270-ANZ085-086-088-633-658-670-160400-
MARINE OBSERVATIONS

STATION/POSITION TIME  TEMP    WIND        PRES    WAVE   SWELL
                       AIR SEA DIR/SP/G            HT/PER HT/PER
                 (UTC) (F)     (DEG/KT/KT) (MB)    (FT/S) (FT/S)
CHESAPEAKE LIGHT NOT AVBL
64 E VA BEACH    0250   42 59  310/ 25/ 31 1015.6    9/ 6
DUCK             0300   39 52  300/ 13/ 19 1016.7
2 E DUCK         0300      54                N/A     3/ 4
OREGON INLET     0300   41 48  310/ 18/ 21 1016.5
13E OREGON INLT  0248      62                N/A     6/ 5   2/11
HATTERAS CG      0300   44 55  320/ 25/ 30 1016.9
DIAMOND BUOY     0310   49 73  320/ 25/ 31 1016.9
CAPE LOOKOUT     0300          340/ 16/ 19 1017.8
BEAUFORT LAB     0300   45 51  350/ 10/ 13 1017.7
30 SE NEW RVR IN 0308   52 65  350/ 16/ 21 1017.8
30 SE NEW RVR IN 0300      65                N/A     5/ 6
27 SE WRIGHTSVLE 0308   53 64  330/ 19/ 25 1018.1
5 SE WRIGHTSVLE  0308   51 56  340/ 14/ 21 1017.5
225 S CAPE HAT   0250   69 75  280/ 27/ 33 1015.3    8/ 7   2/11
41 SE CHARLESTON 0310   60 72  280/ 21/ 27 1018.5

$$




USA.gov is the U.S. government's official web portal to all federal, state and local government web resources and services.